カタログに戻る

IRS 1D

運用中科学SSO
NORAD 24971·PAYLOAD·🇮🇳 India

打ち上げ Sep 29, 1997 から Satish Dhawan Space Centre

Loading…

次のパス (今後24時間)

TLE

最新Source: Space-Track

元期: Sep 13, 2026, 22:17 UTC

1 24971U 97057A   26256.92887328  .00000101  00000-0  50753-4 0  9995
2 24971  98.8505 253.6001 0051511 327.9503  31.8552 14.35541647515341

AllMySatでIRS 1Dをリアルタイム追跡

Download on the App Store